Back to catalog

ARIANE 42P+ DEB

AliveHEO
NORAD 22670·DEBRIS·🇫🇷 France

Launched Oct 28, 1992 from Guiana Space Centre

Loading…

Next Passes (next 24 hours)

TLE

FreshSource: Space-Track

Epoch: Sep 14, 2026, 03:56 UTC

1 22670U 92072C   26257.16397774  .00023725  00000-0  18975-2 0  9994
2 22670   6.7195 231.9683 5993847 291.2327  16.6914  4.09280838764882

Track ARIANE 42P+ DEB in real time with AllMySat

Download on the App Store